EW5835 Weather Reports


Display with metric or nautical units.
time (UTC)temp
F
wind
direction
speed
MPH
gust
MPH
rain 1hr
in
rain 24hr
in
rain mn
in
humidity
%
barometer
mb
20200403114609 41 176 0.0 1.0 0.00 0.00 0.00 78 1006.0
20200403114110 41 121 0.0 3.0 0.00 0.00 0.00 78 1006.0
20200403113609 41 324 1.0 7.0 0.00 0.00 0.00 78 1005.9
20200403113107 41 3 1.0 7.0 0.00 0.00 0.00 78 1005.9
20200403112607 41 76 1.0 10.0 0.00 0.00 0.00 78 1005.9
20200403112108 41 4 1.0 10.0 0.00 0.00 0.00 78 1005.8
20200403111609 41 107 1.0 4.0 0.00 0.00 0.00 79 1005.7
20200403111108 41 244 0.0 4.0 0.00 0.00 0.00 79 1005.7
20200403110608 41 100 0.0 5.0 0.00 0.00 0.00 79 1005.7
20200403110106 41 354 1.0 5.0 0.00 0.00 0.00 79 1005.7
20200403105607 41 265 0.0 4.0 0.00 0.00 0.00 79 1005.5
20200403105106 41 168 0.0 4.0 0.00 0.00 0.00 79 1005.6
20200403104611 41 103 0.0 0.0 0.00 0.00 0.00 79 1005.5
20200403104607 41 251 1.0 4.0 0.00 0.00 0.00 79 1005.5
20200403103606 41 82 0.0 1.0 0.00 0.00 0.00 79 1005.5
20200403103106 41 336 0.0 3.0 0.00 0.00 0.00 79 1005.4
20200403102605 41 159 2.0 3.0 0.00 0.00 0.00 79 1005.3
20200403102105 41 343 0.0 2.0 0.00 0.00 0.00 79 1005.3
20200403101605 41 87 0.0 3.0 0.00 0.00 0.00 79 1005.3
20200403101104 41 243 1.0 3.0 0.00 0.00 0.00 80 1005.1
20200403100606 41 317 1.0 5.0 0.00 0.00 0.00 79 1005.0
20200403100150 41 289 2.0 5.0 0.00 0.00 0.00 79 1005.0
20200403095606 41 165 1.0 5.0 0.00 0.00 0.00 79 1004.9
20200403095106 41 347 1.0 4.0 0.00 0.00 0.00 79 1004.8
20200403094604 41 265 1.0 4.0 0.00 0.00 0.00 79 1004.8
20200403094105 41 14 0.0 4.0 0.00 0.00 0.00 79 1004.7
20200403093605 41 17 1.0 6.0 0.00 0.00 0.00 79 1004.7
20200403093104 41 266 0.0 6.0 0.00 0.00 0.00 79 1004.8
20200403092648 41 262 0.0 3.0 0.00 0.00 0.00 79 1004.8
20200403092104 41 79 0.0 3.0 0.00 0.00 0.00 79 1004.8
20200403091604 41 21 0.0 9.0 0.00 0.00 0.00 78 1004.8
20200403091104 41 228 2.0 9.0 0.00 0.00 0.00 78 1004.5
20200403090602 41 226 1.0 4.0 0.00 0.00 0.00 79 1004.5
20200403090102 41 274 0.0 3.0 0.00 0.00 0.00 79 1004.4
20200403085602 41 255 1.0 6.0 0.00 0.00 0.00 79 1004.4
20200403085104 41 237 0.0 6.0 0.00 0.00 0.00 79 1004.3
20200403084605 41 337 0.0 4.0 0.00 0.00 0.00 79 1004.3
20200403084104 41 257 0.0 3.0 0.00 0.00 0.00 79 1004.4
20200403083604 41 237 1.0 4.0 0.00 0.00 0.00 78 1004.3
20200403083101 41 196 0.0 4.0 0.00 0.00 0.00 78 1004.3
20200403082601 41 251 0.0 3.0 0.00 0.00 0.00 78 1004.3
20200403082102 42 258 1.0 3.0 0.00 0.00 0.00 78 1004.2
20200403081612 42 134 1.0 4.0 0.00 0.00 0.00 78 1004.2
20200403081101 42 155 1.0 4.0 0.00 0.00 0.00 77 1004.2
20200403080601 42 331 2.0 5.0 0.00 0.00 0.00 77 1004.2
20200403080100 42 250 0.0 6.0 0.00 0.00 0.00 76 1004.1
20200403075600 42 238 1.0 6.0 0.00 0.00 0.00 76 1004.2
20200403075102 42 268 1.0 3.0 0.00 0.00 0.00 75 1004.1
20200403074600 42 4 0.0 5.0 0.00 0.00 0.00 75 1004.2
20200403074102 42 220 2.0 5.0 0.00 0.00 0.00 75 1004.1
20200403073601 42 244 2.0 5.0 0.00 0.00 0.00 74 1004.2
20200403073100 42 303 2.0 5.0 0.00 0.00 0.00 73 1004.2
20200403072559 43 231 1.0 4.0 0.00 0.00 0.00 73 1004.3
20200403072059 43 63 1.0 7.0 0.00 0.00 0.00 73 1004.3
20200403071559 43 330 1.0 7.0 0.00 0.00 0.00 72 1004.3
20200403071059 43 76 1.0 5.0 0.00 0.00 0.00 72 1004.3
20200403070559 43 165 1.0 5.0 0.00 0.00 0.00 72 1004.4
20200403070100 43 118 0.0 5.0 0.00 0.00 0.00 72 1004.4
20200403065559 43 65 0.0 5.0 0.00 0.00 0.00 72 1004.4
20200403065124 43 55 1.0 5.0 0.00 0.00 0.00 72 1004.4
20200403064558 43 137 0.0 7.0 0.00 0.00 0.00 71 1004.4
20200403064058 43 164 1.0 7.0 0.00 0.00 0.00 71 1004.4
20200403063558 43 92 2.0 6.0 0.00 0.00 0.00 70 1004.4
20200403063058 43 0 2.0 6.0 0.00 0.00 0.00 69 1004.5
20200403062557 43 96 2.0 17.0 0.00 0.00 0.00 69 1004.4
20200403062058 44 99 4.0 17.0 0.00 0.00 0.00 69 1004.4
20200403061559 44 336 7.0 12.0 0.00 0.00 0.00 68 1004.5
20200403061056 44 78 4.0 7.0 0.00 0.00 0.00 67 1004.7
20200403060557 44 164 1.0 7.0 0.00 0.00 0.00 67 1004.5
20200403060058 44 61 1.0 7.0 0.00 0.00 0.00 66 1004.7
20200403055600 44 281 2.0 7.0 0.00 0.00 0.00 66 1004.7
20200403055058 44 116 2.0 13.0 0.00 0.00 0.00 65 1004.7
20200403054557 44 66 4.0 13.0 0.00 0.00 0.00 64 1004.7
20200403054056 44 83 2.0 7.0 0.00 0.00 0.00 64 1004.8
20200403053555 44 193 1.0 13.0 0.00 0.00 0.00 63 1004.8
20200403053056 44 54 5.0 13.0 0.00 0.00 0.00 63 1004.9
20200403052558 45 230 1.0 6.0 0.00 0.00 0.00 62 1004.7
20200403052054 45 314 0.0 3.0 0.00 0.00 0.00 62 1004.9
20200403051553 45 97 0.0 2.0 0.00 0.00 0.00 62 1004.9
20200403051056 45 244 0.0 7.0 0.00 0.00 0.00 61 1004.9
20200403050556 45 16 2.0 7.0 0.00 0.00 0.00 61 1004.9
20200403050054 45 94 1.0 6.0 0.00 0.00 0.00 61 1004.9
20200403045554 45 214 2.0 11.0 0.00 0.00 0.00 61 1004.8
20200403045055 45 59 0.0 11.0 0.00 0.00 0.00 61 1004.8
20200403044555 45 316 4.0 10.0 0.00 0.00 0.00 61 1004.8
20200403044053 45 49 1.0 5.0 0.00 0.00 0.00 61 1004.9
20200403043555 45 296 0.0 6.0 0.00 0.00 0.00 61 1005.0
20200403043053 45 219 1.0 9.0 0.00 0.00 0.00 61 1005.1
20200403042552 45 117 3.0 18.0 0.00 0.00 0.00 62 1005.2
20200403042054 45 71 5.0 18.0 0.00 0.00 0.00 62 1005.1
20200403041553 45 228 1.0 9.0 0.00 0.00 0.00 62 1005.1
20200403041053 44 310 3.0 9.0 0.00 0.00 0.00 62 1005.2
20200403040553 44 79 2.0 5.0 0.00 0.00 0.00 63 1005.3
20200403040054 44 127 2.0 6.0 0.00 0.00 0.00 63 1005.2
20200403035553 44 100 2.0 12.0 0.00 0.00 0.00 63 1005.4
20200403035053 44 96 3.0 12.0 0.00 0.00 0.00 63 1005.4
20200403034552 45 79 1.0 11.0 0.00 0.00 0.00 62 1005.5
20200403034053 45 79 4.0 13.0 0.00 0.00 0.00 63 1005.5
20200403033555 45 259 1.0 15.0 0.00 0.00 0.00 63 1005.5
20200403033052 45 320 6.0 15.0 0.00 0.00 0.00 62 1005.7
20200403032552 45 134 3.0 12.0 0.00 0.00 0.00 62 1005.7
20200403032052 45 330 3.0 16.0 0.00 0.00 0.00 62 1005.6
20200403031552 45 340 4.0 16.0 0.00 0.00 0.00 63 1005.6
20200403031052 45 63 4.0 15.0 0.00 0.00 0.00 62 1005.6
20200403030551 45 320 6.0 15.0 0.00 0.00 0.00 62 1005.6
20200403030051 45 62 4.0 16.0 0.00 0.00 0.00 62 1005.6
20200403025551 45 47 5.0 16.0 0.00 0.00 0.00 62 1005.4
20200403025051 45 49 5.0 13.0 0.00 0.00 0.00 61 1005.4
20200403024550 45 302 5.0 28.0 0.00 0.00 0.00 61 1005.4
20200403024050 45 47 1.0 28.0 0.00 0.00 0.00 61 1005.7
20200403023550 45 73 3.0 10.0 0.00 0.00 0.00 60 1005.7
20200403023050 45 32 2.0 13.0 0.00 0.00 0.00 60 1005.6
20200403022550 45 109 2.0 13.0 0.00 0.00 0.00 59 1005.8
20200403022050 46 103 4.0 11.0 0.00 0.00 0.00 59 1005.8
20200403021550 46 103 4.0 14.0 0.00 0.00 0.00 58 1005.9
20200403021050 46 61 3.0 14.0 0.00 0.00 0.00 58 1006.0
20200403020549 46 94 5.0 13.0 0.00 0.00 0.00 57 1006.0
20200403020049 46 206 0.0 10.0 0.00 0.00 0.00 57 1006.1
20200403015550 46 94 3.0 10.0 0.00 0.00 0.00 57 1006.2
20200403015048 46 73 4.0 13.0 0.00 0.00 0.00 56 1006.3
20200403014548 46 329 4.0 13.0 0.00 0.00 0.00 56 1006.3
20200403014048 46 313 2.0 10.0 0.00 0.00 0.00 56 1006.4
20200403013548 46 49 2.0 12.0 0.00 0.00 0.00 56 1006.5
20200403013049 46 296 5.0 19.0 0.00 0.00 0.00 56 1006.4
20200403012548 46 314 2.0 19.0 0.00 0.00 0.00 56 1006.5
20200403012048 46 276 2.0 17.0 0.00 0.00 0.00 56 1006.7
20200403011546 46 345 5.0 17.0 0.00 0.00 0.00 56 1006.7
20200403011046 46 334 1.0 11.0 0.00 0.00 0.00 56 1006.7
20200403010548 46 237 3.0 14.0 0.00 0.00 0.00 55 1006.5
20200403010048 46 235 5.0 14.0 0.00 0.00 0.00 55 1006.5
20200403005547 46 106 4.0 10.0 0.00 0.00 0.00 55 1006.7
20200403005046 46 87 3.0 10.0 0.00 0.00 0.00 56 1006.7
20200403004547 46 272 3.0 10.0 0.00 0.00 0.00 56 1006.5
20200403004045 46 144 1.0 12.0 0.00 0.00 0.00 56 1006.6
20200403003546 46 251 3.0 12.0 0.00 0.00 0.00 56 1006.5
20200403003045 46 230 3.0 9.0 0.00 0.00 0.00 56 1006.5
20200403002546 46 324 2.0 13.0 0.00 0.00 0.00 56 1006.7
20200403002044 46 336 2.0 13.0 0.00 0.00 0.00 56 1006.4
20200403001545 46 38 4.0 10.0 0.00 0.00 0.00 56 1006.5
20200403001052 46 252 1.0 4.0 0.00 0.00 0.00 57 1006.4
20200403000549 46 252 1.0 6.0 0.00 0.00 0.00 57 1006.4
20200403000045 46 234 3.0 10.0 0.00 0.00 0.00 56 1006.3
20200402235544 46 275 3.0 10.0 0.00 0.00 0.00 56 1006.3
20200402235045 46 336 2.0 7.0 0.00 0.00 0.00 56 1006.4
20200402234545 47 188 4.0 14.0 0.00 0.00 0.00 56 1006.2
20200402234045 47 20 2.0 14.0 0.00 0.00 0.00 55 1006.3
20200402233545 47 32 2.0 14.0 0.00 0.00 0.00 55 1006.3
20200402233044 47 0 6.0 12.0 0.00 0.00 0.00 55 1006.4
20200402232543 47 23 4.0 12.0 0.00 0.00 0.00 56 1006.2
20200402232043 47 224 1.0 11.0 0.00 0.00 0.00 55 1006.3
20200402231543 47 250 4.0 11.0 0.00 0.00 0.00 55 1006.2
20200402231043 47 238 5.0 11.0 0.00 0.00 0.00 55 1006.2
20200402230543 47 125 6.0 19.0 0.00 0.00 0.00 54 1006.1
20200402230044 47 34 8.0 19.0 0.00 0.00 0.00 54 1006.2
20200402225543 47 306 7.0 20.0 0.00 0.00 0.00 55 1006.2
20200402225043 47 357 4.0 20.0 0.00 0.00 0.00 55 1006.3
20200402224543 48 58 5.0 18.0 0.00 0.00 0.00 54 1006.2
20200402224043 48 164 3.0 11.0 0.00 0.00 0.00 55 1006.3
20200402223542 48 285 1.0 15.0 0.00 0.00 0.00 55 1006.2
20200402223043 48 87 7.0 16.0 0.00 0.00 0.00 55 1006.0
20200402222542 48 226 3.0 16.0 0.00 0.00 0.00 55 1006.2
20200402222043 48 11 4.0 11.0 0.00 0.00 0.00 55 1006.1
20200402221541 48 317 3.0 12.0 0.00 0.00 0.00 55 1006.1
20200402221040 48 340 6.0 12.0 0.00 0.00 0.00 54 1006.0
20200402220540 48 38 5.0 12.0 0.00 0.00 0.00 54 1006.1
20200402220041 48 54 4.0 15.0 0.00 0.00 0.00 54 1006.3
20200402215541 48 206 8.0 19.0 0.00 0.00 0.00 54 1006.0
20200402215042 49 18 8.0 19.0 0.00 0.00 0.00 54 1006.0
20200402214540 49 348 9.0 16.0 0.00 0.00 0.00 54 1006.2
20200402214040 49 79 5.0 21.0 0.00 0.00 0.00 54 1006.1
20200402213541 49 109 3.0 21.0 0.00 0.00 0.00 54 1006.0
20200402213040 49 220 3.0 12.0 0.00 0.00 0.00 54 1005.9
20200402212539 49 114 5.0 13.0 0.00 0.00 0.00 54 1005.9
20200402212038 49 197 2.0 17.0 0.00 0.00 0.00 53 1006.1
20200402211540 49 90 4.0 17.0 0.00 0.00 0.00 53 1006.2
20200402211040 50 333 5.0 9.0 0.00 0.00 0.00 52 1005.9
20200402210539 50 329 2.0 18.0 0.00 0.00 0.00 52 1005.9
20200402210040 50 96 5.0 19.0 0.00 0.00 0.00 51 1005.8
20200402205537 50 338 7.0 19.0 0.00 0.00 0.00 51 1005.8
20200402205038 50 190 3.0 16.0 0.00 0.00 0.00 52 1005.7
20200402204538 50 331 5.0 15.0 0.00 0.00 0.00 51 1005.7
20200402204040 50 85 5.0 19.0 0.00 0.00 0.00 51 1005.6
20200402203537 50 54 7.0 22.0 0.00 0.00 0.00 50 1005.6
20200402203037 51 62 8.0 22.0 0.00 0.00 0.00 50 1005.6
20200402202537 51 38 3.0 14.0 0.00 0.00 0.00 51 1005.8
20200402202038 51 348 8.0 16.0 0.00 0.00 0.00 49 1005.9
20200402201537 51 152 5.0 16.0 0.00 0.00 0.00 49 1005.6
20200402201035 51 337 4.0 11.0 0.00 0.00 0.00 49 1005.8
20200402200538 51 152 4.0 15.0 0.00 0.00 0.00 48 1005.8
20200402200106 52 250 6.0 15.0 0.00 0.00 0.00 47 1005.5
20200402195536 52 334 5.0 13.0 0.00 0.00 0.00 46 1005.7
20200402195035 52 151 4.0 17.0 0.00 0.00 0.00 48 1005.5
20200402194537 52 0 7.0 17.0 0.00 0.00 0.00 46 1005.6
20200402194036 53 128 2.0 7.0 0.00 0.00 0.00 46 1005.7
20200402193536 53 296 3.0 17.0 0.00 0.00 0.00 47 1005.7
20200402193037 52 83 6.0 17.0 0.00 0.00 0.00 47 1005.7
20200402192535 52 11 7.0 16.0 0.00 0.00 0.00 47 1005.9
20200402192037 52 14 8.0 14.0 0.00 0.00 0.00 46 1005.6
20200402191535 52 80 2.0 10.0 0.00 0.00 0.00 48 1005.8
20200402191034 52 90 4.0 18.0 0.00 0.00 0.00 50 1005.9
20200402190535 51 42 4.0 18.0 0.00 0.00 0.00 48 1005.9
20200402190034 51 48 6.0 18.0 0.00 0.00 0.00 48 1006.0
20200402185535 51 355 7.0 18.0 0.00 0.00 0.00 47 1006.0
20200402185033 51 341 6.0 20.0 0.00 0.00 0.00 49 1006.1
20200402184534 51 305 6.0 20.0 0.00 0.00 0.00 48 1005.9
20200402184035 51 341 4.0 16.0 0.00 0.00 0.00 50 1005.9
20200402183535 51 59 2.0 13.0 0.00 0.00 0.00 49 1005.9
20200402183033 51 269 5.0 20.0 0.00 0.00 0.00 49 1006.1
20200402182534 50 39 4.0 20.0 0.00 0.00 0.00 49 1005.9
20200402182034 50 131 7.0 17.0 0.00 0.00 0.00 50 1006.1
20200402181532 50 135 4.0 16.0 0.00 0.00 0.00 50 1006.0
20200402181034 50 343 6.0 14.0 0.00 0.00 0.00 50 1006.1
20200402180534 50 320 3.0 16.0 0.00 0.00 0.00 52 1006.2
20200402180033 50 17 6.0 16.0 0.00 0.00 0.00 50 1006.2
20200402175532 50 282 3.0 14.0 0.00 0.00 0.00 50 1006.2
20200402175031 50 76 5.0 13.0 0.00 0.00 0.00 53 1006.3
20200402174533 50 329 3.0 16.0 0.00 0.00 0.00 52 1006.5
20200402174033 49 219 2.0 16.0 0.00 0.00 0.00 51 1006.4
20200402173532 50 338 6.0 16.0 0.00 0.00 0.00 50 1006.6
20200402173031 50 331 4.0 17.0 0.00 0.00 0.00 50 1006.7
20200402172533 50 202 3.0 19.0 0.00 0.00 0.00 49 1006.5
20200402172031 51 312 6.0 19.0 0.00 0.00 0.00 48 1006.8
20200402171531 51 142 6.0 15.0 0.00 0.00 0.00 47 1006.8
20200402171031 51 62 5.0 10.0 0.00 0.00 0.00 48 1006.7
20200402170531 51 54 3.0 7.0 0.00 0.00 0.00 49 1006.7
20200402170031 51 0 3.0 17.0 0.00 0.00 0.00 49 1006.6
20200402165531 51 341 5.0 17.0 0.00 0.00 0.00 50 1006.7
20200402165033 50 32 7.0 18.0 0.00 0.00 0.00 49 1006.8
20200402164530 50 336 4.0 18.0 0.00 0.00 0.00 50 1006.8
20200402164029 49 330 5.0 13.0 0.00 0.00 0.00 51 1007.1
20200402163530 49 49 5.0 13.0 0.00 0.00 0.00 50 1007.1
20200402163031 49 107 2.0 15.0 0.00 0.00 0.00 50 1007.1
20200402162530 50 331 4.0 15.0 0.00 0.00 0.00 50 1007.3
20200402162030 50 353 6.0 13.0 0.00 0.00 0.00 49 1007.1
20200402161530 50 135 6.0 11.0 0.00 0.00 0.00 50 1007.3
20200402161029 49 217 3.0 17.0 0.00 0.00 0.00 53 1007.4
20200402160529 49 35 5.0 21.0 0.00 0.00 0.00 52 1007.4
20200402160030 48 336 6.0 21.0 0.00 0.00 0.00 52 1007.4
20200402155529 48 110 4.0 31.0 0.00 0.00 0.00 52 1007.5
20200402155030 48 319 12.0 31.0 0.00 0.00 0.00 50 1007.4
20200402154528 48 63 3.0 15.0 0.00 0.00 0.00 52 1007.5
20200402154028 48 24 5.0 15.0 0.00 0.00 0.00 53 1007.4
20200402153528 47 93 4.0 18.0 0.00 0.00 0.00 53 1007.6
20200402153028 47 30 5.0 18.0 0.00 0.00 0.00 53 1007.8
20200402152528 47 69 9.0 20.0 0.00 0.00 0.00 53 1007.9
20200402152026 47 344 7.0 20.0 0.00 0.00 0.00 52 1007.8
20200402151526 47 0 5.0 10.0 0.00 0.00 0.00 53 1007.8
20200402151026 47 94 5.0 10.0 0.00 0.00 0.00 54 1007.9
20200402150528 46 341 3.0 10.0 0.00 0.00 0.00 54 1008.1
20200402150027 46 72 3.0 10.0 0.00 0.00 0.00 54 1008.1
20200402145526 46 83 4.0 11.0 0.00 0.00 0.00 54 1008.1
20200402145026 46 79 2.0 17.0 0.00 0.00 0.00 55 1008.2
20200402144526 46 71 4.0 17.0 0.00 0.00 0.00 53 1008.1
20200402144026 46 135 1.0 13.0 0.00 0.00 0.00 57 1008.3
20200402143525 46 355 6.0 13.0 0.00 0.00 0.00 55 1008.4
20200402143026 46 338 3.0 13.0 0.00 0.00 0.00 57 1008.4
20200402142525 46 56 5.0 15.0 0.00 0.00 0.00 57 1008.4
20200402142025 45 344 5.0 15.0 0.00 0.00 0.00 56 1008.5
20200402141526 45 347 4.0 11.0 0.00 0.00 0.00 57 1008.5
20200402141026 44 6 2.0 13.0 0.00 0.00 0.00 57 1008.4
20200402140524 44 354 1.0 13.0 0.00 0.00 0.00 59 1008.5
20200402140024 44 45 3.0 11.0 0.00 0.00 0.00 59 1008.6
20200402135525 44 354 3.0 9.0 0.00 0.00 0.00 61 1008.6
20200402135025 44 27 3.0 10.0 0.00 0.00 0.00 61 1008.7
20200402134523 43 336 4.0 15.0 0.00 0.00 0.00 61 1008.7
20200402134025 42 353 4.0 15.0 0.00 0.00 0.00 63 1008.8
20200402133524 42 65 2.0 11.0 0.00 0.00 0.00 63 1008.8
20200402133025 42 44 5.0 13.0 0.00 0.00 0.00 64 1008.7
20200402132523 41 92 4.0 13.0 0.00 0.00 0.00 64 1008.7
20200402132025 41 68 2.0 9.0 0.00 0.00 0.00 65 1008.8
20200402131524 41 65 0.0 17.0 0.00 0.00 0.00 67 1008.8
20200402131024 41 321 8.0 17.0 0.00 0.00 0.00 65 1008.9
20200402130523 41 92 4.0 15.0 0.00 0.00 0.00 67 1008.8
20200402130022 40 94 3.0 15.0 0.00 0.00 0.00 67 1008.9
20200402125522 40 336 4.0 10.0 0.00 0.00 0.00 67 1009.0
20200402125020 40 35 1.0 12.0 0.00 0.00 0.00 68 1009.0
20200402124522 40 0 6.0 14.0 0.00 0.00 0.00 68 1009.0
20200402124021 40 23 6.0 14.0 0.00 0.00 0.00 68 1009.0
20200402123523 40 13 2.0 20.0 0.00 0.00 0.00 69 1008.9
20200402123021 39 338 2.0 20.0 0.00 0.00 0.00 70 1008.9
20200402122522 39 326 4.0 11.0 0.00 0.00 0.00 69 1009.0
20200402122020 39 73 1.0 11.0 0.00 0.00 0.00 70 1008.9
20200402121521 39 140 1.0 13.0 0.00 0.00 0.00 70 1008.7
20200402121022 39 58 4.0 13.0 0.00 0.00 0.00 70 1008.9
20200402120522 39 85 1.0 10.0 0.00 0.00 0.00 70 1008.8
20200402120021 38 330 1.0 6.0 0.00 0.00 0.00 72 1008.9
20200402115521 38 324 1.0 6.0 0.00 0.00 0.00 72 1008.9
20200402115020 38 35 2.0 6.0 0.00 0.00 0.00 73 1008.9